Погода Старое Баршино

Погода Старое Баршино : погода сейчас, прогноз погоды и архив. Всё, что Вы хотите узнать о погоде Старое Баршино!

Поиск расширенной информации на нашем сайте:

Другие новости

Новости СМИ2

Главная страница сайта

Новости сайта

02.10.2013

Напоминаем, что на нашем новом сайте вы можете получить высокодетализированные прогнозы погоды по пунктам России, СНГ и мира (включающие важные для авиации метеовеличины, такие как направление и скорость ветра, видимость, явления погоды, количество и форма облачности, нижняя и верхняя граница облачности), а также ознакомиться с разнообразными материалами по авиационной метеорологии и подборкой полезных ссылок на эту тему.

Сайт Метеоцентр.Азия посвящён разработке технологий оптимизации авиаметеорологического обслуживания, включая проектирование и перспективное создание нескольких автоматизированных авиаметеорологических систем:
- система выпуска высокодетальных прогностических карт явлений погоды для нижнего воздушного пространства по России и ближнему зарубежью;
- система верификации прогнозов TAF (выпускаемых синоптиками официальных АМСГ РФ и ближнего зарубежья) и AUTOTAF (выпускаемых сайтом Метеоцентр.Азия) - выявление ошибок, онлайн-сопоставление с фактической погодой METAR, автоматическое внесение коррективов в прогнозы при резком отклонении фактической погоды от прогноза, подсчёт оправдываемости прогнозов по элементам и в целом;
- система обработки, анализа и отображения авиаметеорологической информации для применения провайдерами метеорологической информации.

Рекомендуем: ищете офис? Бизнес центр Капитал Тауэр в районе 1-я Тверская-Ямская улица с фотками и планировками

Погода Старое Баршино - сегодня

Время (UTC), дата Ветер
(°,м/с) 
Видим.   Явления Облачность Т
(°С)
Тd
(°С)
f(%) Тe
(°С)
Pmin
(гПа)
dP
(гПа)
Po
(мм)
O2
(г/м3)
Тmin Tmax R s Состояние
почвы
00 20.04.17 тихо ()   н/о    ясно 
+3.5 +0.6 81 +4  1021.3  -0.6  734  292           
06 20.04.17 090 (В) 10 км    3/3 1000 м 
[Cu hum]
+18.5 +5.5 42 +18  1018.4  -0.4  733  276  +3         
09 20.04.17 050 (СВ) 10 км    1/1 1000 м 
[Cu hum]
+19.8 +3.6 34 +20  1016.5  -1.7  732  274           
12 20.04.17 090 (В) 10 км    1/1 1000 м 
[Cu hum]
+20.9 +3.6 32 +21  1014.6  -1.7  731  273           
15 20.04.17 090 (В) н/о    3/0 
[Sc]
+14.2 +6.1 58 +13  1014.2  -1.4  730  279    +22.3       
18 20.04.17 090 (В) н/о    ясно 
+12.9 +6.4 65 +11  1015.1  0.8  730  280    +22.3       
21 20.04.17 090 (В) н/о    ясно 
+10.1 +5 71 +9  1013.8  -1.7  729  282           
00 21.04.17 090 (В) н/о    ясно 
+9.2 +4.1 70 +7  1012.4  -1.4  728  283           
03 21.04.17 090 (В) 10 км    9/0 средняя, верхняя 
[Ac und|Ci sp]
+12.2 +5.3 63 +11  1010.5  -1.5  727  279           
06 21.04.17 160 (Ю) 10 км    9/0 средняя, верхняя 
[Ac und|Ci sp]
+19.3 +4.3 37 +19  1007.8  -1.6  726  272  +8.4         
09 21.04.17 160 (Ю) 10 км    10/10 600 м 
[Sc]
+15.5 +8.2 62 +15  1007.7  -0.5  725  275           
12 21.04.17 140 (ЮВ) 10  10 км  {дождь}  8/6 600 м средняя 
[Sc|Ac und]
+14.6 +10.4 76 +15  1005.1  -2.6  723  275           
15 21.04.17 090 (В) н/о    6/6 600 м 
[Sc]
+13.4 +10.7 84 +16  1003.6  -1.6  722  275    +20.1  0.0     
18 21.04.17 140 (ЮВ) н/о    5/5 600 м 
[Sc]
+11.3 +8 80 +10  1003.7  -0.1  722  278    +20.1  0.0     
21 21.04.17 180 (Ю) н/о    10/10 600 м 
[Sc]
+11.3 +10.2 93 +12  1002.9  -0.8  722  277           
00 22.04.17 230 (ЮЗ) 10  н/о    10/10 600 м 
[Sc]
+10.9 +9.3 90 +10  1004.6  1.4  723  278           
03 22.04.17 270 (З) 10  10 км  {дождь}  5/0 средняя, верхняя 
[Ac und|Ci fib]
+12.4 +9.7 84 +11  1008.3  3.9  726  278      0.5     
06 22.04.17 290 (З) 10 км  {дождь}  8/3 1000 м средняя, верхняя 
[Cu hum|Ac und|Ci fib]
+10.8 +5.3 69 +9  1012.8  729  281  +9.5    0.5     
09 22.04.17 320 (СЗ) 10  10 км    8/0 средняя, верхняя 
[Ac und|Ci sp]
+12 +1.7 49 +10  1016.4  3.6  731  282           
12 22.04.17 320 (СЗ) 10 км    ясно 
+12.4 -5.4 28 +11  1016.7  0.3  731  282           
15 22.04.17 320 (СЗ) н/о    3/0 верхняя 
[Ci fib]
+11.5 +3.6 58 +11  1018.7  1.7  733  283    +13.4       
18 22.04.17 тихо ()   н/о    3/0 средняя 
[Ac trans]
+8.6 +5.9 83 +9  1021  734  286    +13.4       
21 22.04.17 тихо ()   н/о    ясно 
+1.8 -0.4 85 +2  1021.3  -0.9  734  294           
00 23.04.17 тихо ()   н/о    ясно 
+0.5 -1.8 85 +1  1021.2  -0.3  733  295           
03 23.04.17 140 (ЮВ) 10 км    8/8 600 м 
[Sc]
+6.8 +0.7 65 +5  1016.9  -3.1  731  287           
Время (UTC), дата Ветер
(°,м/с) 
Видим.   Явления Облачность Т
(°С)
Тd
(°С)
f(%) Тe
(°С)
Pmin
(гПа)
dP
(гПа)
Po
(мм)
O2
(г/м3)
Тmin Tmax R s Состояние
почвы

Для получения пояснительной информации подведите курсор к названию столбца.

ПОГОДА Старое Баршино - архив

Всё, что Вы хотите узнать о погоде Старое Баршино - удобно и подробно!

Выберите нужную дату (начиная с 1 января 2015* года) и нажмите кнопку "Найти".
Будут отображены архивные сводки погоды по пункту Старое Баршино, начиная с указанной даты.


Отображать данные в формате CSV (для использования в таблицах Excel)


Внимание! Наш архив погоды предназначен исключительно для личного некоммерческого использования в познавательных целях. Если Вам необходимы официальные справки о состоянии погоды (для производственных, юридических, коммерческих и т.п. целей), обращайтесь в органы Росгидромета.

*Примечание: данная дата относится к архиву по метеостанциям СССР (Россия, СНГ, Балтия).
Архив по метеостанциям Зарубежной Европы и Азии (кроме Китая) хранится 10 дней, по другим регионам земного шара (Китай, Африка, Америка, Австралия, Океания) - 1 день.

Старое Баршино - район местоположения метеостанции


Название, широта, долгота, высота метеостанции:
Старое Баршино 49.68°ш. 69.52°д. 357 м над ур. моря [Казахстан]

Дополнительная информация

В oтличие oт бoльшинства пoгoдных сайтoв мы публикуем пoдрoбную метеoинфoрмацию в детальнoм прoфессиoнальнoм фoрмате.

Характеристики температуры и влажнoсти вoздуха измеряются на высoте 2 м в тени вдали oт зданий и деревьев.
Скoрoсть ветра измеряется на высoте 10 м (на урoвне рoста челoвека скoрoсть ветра ниже в 1.5-2 раза). Если метеoстанция нахoдится в гoрoде или в лесу, тo скoрoсть ветра занижена на 2-4 м/с пo сравнению с oткрытым местoм. Скoрoсть ветра над акватoриями крупных рек и oзёр, а также на вершинах хoлмoв на 2-5 м/с выше, чем в oбычных услoвиях.
Атмoсфернoе давление в разных тoчках местнoсти мoжет значительнo oтличаться oт давления на метеoстанции, в зависимoсти oт услoвий рельефа (при пoдъёме на 10 м давление пoнижается примернo на 1 мм рт.ст.).